QAK4889 MMTJ-MMSD

Flight info

Callsign QAK4889
Flight time N/A
Altitude 41000
Route SIDGA1B SIDGA UT6 IMUSU UT25 LTO/N0404F170 V4 ENEKO ENEKO1B
Aircraft C25C/M-SDE2E3FGHRWXY/LB1

Departure

Time N/A
Airport General Abelardo L. Rodriguez International Airport (MMTJ)

Arrival

Time 2026-05-04 07:38
Airport Los Cabos International Airport (MMSD)
Time Latitude Longitude Altitude Speed Heading
2026-05-04 06:08 30.97389 -115.49554 41006 ft 472 kts 154°
2026-05-04 06:09 30.94764 -115.47263 40998 ft 471 kts 154°
2026-05-04 06:11 30.73975 -115.28761 40964 ft 471 kts 152°
2026-05-04 06:13 30.53498 -115.09896 40953 ft 468 kts 152°
2026-05-04 06:14 30.35678 -114.93558 40954 ft 464 kts 153°
2026-05-04 06:15 30.30616 -114.88935 40962 ft 464 kts 153°
2026-05-04 06:15 30.25553 -114.84312 40961 ft 464 kts 153°
2026-05-04 06:16 30.20487 -114.79694 40960 ft 464 kts 153°
2026-05-04 06:16 30.15418 -114.75079 40959 ft 464 kts 153°
2026-05-04 06:17 30.10378 -114.70498 40967 ft 464 kts 153°
2026-05-04 06:17 30.05302 -114.65889 40973 ft 464 kts 153°
2026-05-04 06:18 30.00223 -114.61285 40968 ft 464 kts 153°
2026-05-04 06:20 29.79872 -114.42896 40982 ft 465 kts 153°
2026-05-04 06:21 29.67131 -114.31432 40984 ft 465 kts 153°
2026-05-04 06:22 29.62036 -114.26855 40986 ft 465 kts 153°
2026-05-04 06:25 29.26161 -113.94823 41012 ft 468 kts 153°
2026-05-04 06:26 29.20991 -113.90235 41011 ft 472 kts 152°
2026-05-04 06:26 29.15806 -113.85629 41015 ft 471 kts 152°
2026-05-04 06:27 29.02830 -113.74147 41012 ft 472 kts 152°
2026-05-04 06:28 28.97623 -113.69551 41013 ft 473 kts 152°
2026-05-04 06:28 28.92410 -113.64953 41013 ft 474 kts 152°
2026-05-04 06:29 28.87221 -113.60384 41013 ft 474 kts 152°
2026-05-04 06:29 28.82020 -113.55805 41014 ft 470 kts 152°
2026-05-04 06:30 28.76831 -113.51252 41007 ft 471 kts 152°
2026-05-04 06:30 28.71636 -113.46691 41003 ft 472 kts 151°
2026-05-04 06:31 28.66432 -113.42134 41000 ft 472 kts 151°
2026-05-04 06:31 28.61222 -113.37576 40997 ft 472 kts 151°
2026-05-04 06:33 28.40322 -113.19345 40997 ft 473 kts 151°
2026-05-04 06:34 28.35099 -113.14805 40998 ft 473 kts 151°
2026-05-04 06:34 28.29867 -113.10262 40995 ft 474 kts 151°
2026-05-04 06:36 28.08957 -112.92163 40998 ft 472 kts 150°
2026-05-04 06:37 28.03741 -112.87663 41013 ft 470 kts 150°
2026-05-04 06:37 27.98542 -112.83183 41006 ft 470 kts 150°
2026-05-04 06:38 27.93366 -112.78728 40999 ft 471 kts 150°
2026-05-04 06:40 27.72466 -112.60793 40988 ft 472 kts 150°
2026-05-04 06:40 27.67230 -112.56314 40982 ft 472 kts 150°
2026-05-04 06:41 27.62845 -112.52568 40988 ft 472 kts 150°
2026-05-04 06:41 27.57606 -112.48096 40986 ft 472 kts 150°
2026-05-04 06:42 27.52366 -112.43631 40986 ft 472 kts 150°
2026-05-04 06:44 27.31373 -112.26011 40987 ft 465 kts 156°
2026-05-04 06:44 27.25848 -112.22198 40983 ft 467 kts 156°
2026-05-04 06:45 27.20289 -112.18347 40981 ft 466 kts 156°
2026-05-04 06:45 27.14797 -112.14563 40977 ft 466 kts 156°
2026-05-04 06:46 27.09271 -112.10749 40976 ft 466 kts 156°
2026-05-04 06:46 27.03744 -112.06944 40976 ft 466 kts 156°
2026-05-04 06:48 26.81621 -111.91751 40979 ft 467 kts 156°
2026-05-04 06:50 26.59499 -111.76623 40991 ft 466 kts 156°
2026-05-04 06:51 26.53960 -111.72845 40995 ft 466 kts 156°
2026-05-04 06:51 26.48421 -111.69070 41003 ft 466 kts 156°
2026-05-04 06:52 26.42917 -111.65323 41001 ft 466 kts 155°
2026-05-04 06:52 26.37379 -111.61559 41002 ft 466 kts 155°
2026-05-04 06:53 26.31845 -111.57800 41011 ft 465 kts 155°
2026-05-04 06:53 26.26315 -111.54051 41007 ft 465 kts 155°
2026-05-04 06:54 26.20787 -111.50303 41007 ft 465 kts 155°
2026-05-04 06:54 26.15257 -111.46561 41004 ft 465 kts 155°
2026-05-04 06:55 26.09728 -111.42823 41005 ft 465 kts 155°
2026-05-04 06:55 26.04197 -111.39088 41006 ft 465 kts 155°
2026-05-04 06:57 25.84818 -111.19381 41001 ft 479 kts 138°
2026-05-04 06:58 25.80240 -111.14012 40998 ft 479 kts 138°
2026-05-04 06:58 25.75660 -111.08649 40999 ft 479 kts 138°
2026-05-04 06:59 25.71082 -111.03290 40997 ft 479 kts 138°
2026-05-04 06:59 25.66497 -110.97932 40999 ft 479 kts 138°
2026-05-04 07:01 25.48135 -110.76539 41000 ft 479 kts 138°
2026-05-04 07:02 25.43538 -110.71200 40997 ft 479 kts 138°
2026-05-04 07:02 25.38939 -110.65865 41001 ft 479 kts 138°
2026-05-04 07:03 25.34337 -110.60532 40997 ft 479 kts 138°
2026-05-04 07:03 25.29732 -110.55202 40998 ft 479 kts 138°
2026-05-04 07:04 25.25127 -110.49876 40993 ft 479 kts 138°
2026-05-04 07:04 25.20553 -110.44590 40995 ft 479 kts 138°
2026-05-04 07:05 25.15950 -110.39279 40995 ft 479 kts 138°
2026-05-04 07:05 25.11343 -110.33969 40994 ft 479 kts 138°
2026-05-04 07:06 25.04433 -110.26016 40997 ft 478 kts 138°
2026-05-04 07:07 24.99828 -110.20722 40998 ft 478 kts 138°
2026-05-04 07:08 24.83616 -110.02137 36872 ft 456 kts 137°
2026-05-04 07:09 24.81438 -109.99644 36295 ft 448 kts 137°
2026-05-04 07:09 24.79289 -109.97186 35725 ft 443 kts 137°
2026-05-04 07:09 24.77165 -109.94763 35152 ft 438 kts 137°
2026-05-04 07:09 24.75060 -109.92359 34582 ft 434 kts 137°
2026-05-04 07:10 24.72978 -109.89982 34022 ft 429 kts 137°
2026-05-04 07:10 24.70918 -109.87632 33431 ft 425 kts 137°
2026-05-04 07:12 24.57000 -109.71789 29623 ft 406 kts 139°
2026-05-04 07:12 24.55038 -109.69559 29080 ft 405 kts 139°
2026-05-04 07:12 24.53080 -109.67338 28546 ft 405 kts 139°
2026-05-04 07:12 24.50948 -109.65364 28012 ft 398 kts 150°
2026-05-04 07:13 24.48545 -109.63948 27488 ft 388 kts 165°
2026-05-04 07:13 24.45995 -109.63056 26997 ft 383 kts 170°
2026-05-04 07:13 24.43404 -109.62500 26518 ft 377 kts 177°
2026-05-04 07:14 24.33145 -109.61020 24746 ft 371 kts 176°
2026-05-04 07:14 24.30597 -109.60624 24328 ft 369 kts 176°
2026-05-04 07:15 24.28065 -109.60244 24000 ft 365 kts 176°
2026-05-04 07:15 24.25565 -109.59852 23677 ft 362 kts 175°
2026-05-04 07:15 24.23081 -109.59455 23294 ft 359 kts 175°
2026-05-04 07:15 24.20618 -109.59066 22910 ft 356 kts 175°
2026-05-04 07:16 24.18174 -109.58683 22526 ft 354 kts 175°
2026-05-04 07:16 24.15741 -109.58304 22149 ft 352 kts 175°
2026-05-04 07:16 24.13324 -109.57921 21775 ft 350 kts 175°
2026-05-04 07:16 24.10922 -109.57546 21406 ft 348 kts 175°
2026-05-04 07:17 24.08529 -109.57168 21046 ft 346 kts 175°
2026-05-04 07:17 24.06151 -109.56798 20684 ft 345 kts 175°
2026-05-04 07:17 24.03783 -109.56425 20329 ft 343 kts 175°
2026-05-04 07:17 24.01426 -109.56056 19977 ft 341 kts 174°
2026-05-04 07:18 23.99081 -109.55689 19630 ft 340 kts 175°
2026-05-04 07:18 23.96744 -109.55321 19297 ft 338 kts 174°
2026-05-04 07:18 23.94419 -109.54960 18981 ft 336 kts 174°
2026-05-04 07:18 23.92110 -109.54595 18667 ft 334 kts 174°
2026-05-04 07:19 23.89812 -109.54239 18355 ft 333 kts 174°
2026-05-04 07:19 23.87524 -109.53878 18010 ft 331 kts 174°
2026-05-04 07:19 23.85246 -109.53524 17655 ft 330 kts 174°
2026-05-04 07:19 23.82976 -109.53167 17298 ft 329 kts 174°
2026-05-04 07:20 23.80709 -109.52814 16954 ft 329 kts 174°
2026-05-04 07:20 23.78448 -109.52461 16616 ft 328 kts 174°
2026-05-04 07:20 23.76191 -109.52108 16276 ft 328 kts 174°
2026-05-04 07:20 23.73936 -109.51758 15940 ft 327 kts 174°
2026-05-04 07:22 23.58183 -109.49301 13513 ft 332 kts 174°
2026-05-04 07:22 23.55892 -109.48945 13061 ft 333 kts 174°
2026-05-04 07:23 23.53593 -109.48587 12614 ft 334 kts 174°
2026-05-04 07:23 23.51290 -109.48229 12176 ft 334 kts 174°
2026-05-04 07:23 23.48994 -109.48283 11766 ft 328 kts 195°
2026-05-04 07:23 23.46856 -109.48827 11466 ft 304 kts 194°
2026-05-04 07:24 23.44834 -109.49311 11171 ft 294 kts 195°
2026-05-04 07:24 23.42853 -109.49826 10881 ft 292 kts 195°
2026-05-04 07:24 23.40881 -109.50329 10593 ft 291 kts 195°
2026-05-04 07:24 23.38911 -109.50822 10306 ft 290 kts 195°
2026-05-04 07:25 23.36952 -109.51316 10015 ft 288 kts 195°
2026-05-04 07:26 23.23570 -109.54681 8016 ft 278 kts 195°
2026-05-04 07:27 23.21660 -109.55157 7439 ft 281 kts 195°
2026-05-04 07:27 23.19784 -109.55629 7050 ft 273 kts 195°
2026-05-04 07:27 23.17967 -109.56079 6736 ft 264 kts 195°
2026-05-04 07:27 23.16200 -109.56526 6457 ft 258 kts 195°
2026-05-04 07:28 23.15053 -109.56810 6274 ft 254 kts 195°
2026-05-04 07:28 23.13328 -109.57246 6009 ft 249 kts 195°
2026-05-04 07:28 23.11678 -109.57656 5765 ft 244 kts 195°
2026-05-04 07:28 23.10034 -109.58070 5533 ft 241 kts 195°
2026-05-04 07:29 23.08408 -109.58475 5306 ft 239 kts 195°
2026-05-04 07:29 23.06797 -109.58879 5083 ft 236 kts 194°
2026-05-04 07:29 23.05178 -109.59285 4860 ft 236 kts 195°
2026-05-04 07:29 23.03564 -109.59687 4640 ft 240 kts 194°
2026-05-04 07:30 23.01948 -109.60094 4417 ft 243 kts 194°
2026-05-04 07:30 23.00296 -109.60512 4183 ft 244 kts 197°
2026-05-04 07:30 22.98848 -109.61413 3950 ft 242 kts 226°
2026-05-04 07:30 22.97979 -109.62940 3730 ft 237 kts 253°
2026-05-04 07:31 22.97743 -109.64675 3522 ft 229 kts 263°
2026-05-04 07:31 22.97575 -109.66338 3324 ft 213 kts 265°
2026-05-04 07:33 23.02970 -109.70686 2196 ft 100 kts 355°
2026-05-04 07:33 23.03670 -109.70766 2122 ft 103 kts 355°
2026-05-04 07:33 23.04404 -109.70845 2053 ft 107 kts 354°
2026-05-04 07:33 23.05134 -109.70929 1992 ft 104 kts 354°
2026-05-04 07:34 23.05861 -109.71009 1902 ft 107 kts 354°
2026-05-04 07:34 23.06617 -109.71096 1774 ft 111 kts 356°
2026-05-04 07:34 23.07387 -109.71184 1636 ft 110 kts 354°
2026-05-04 07:34 23.08139 -109.71269 1494 ft 108 kts 355°
2026-05-04 07:35 23.08860 -109.71350 1358 ft 102 kts 354°
2026-05-04 07:35 23.09571 -109.71431 1221 ft 103 kts 353°
2026-05-04 07:35 23.10284 -109.71514 1110 ft 104 kts 353°
2026-05-04 07:35 23.11010 -109.71587 946 ft 104 kts 352°
2026-05-04 07:36 23.11733 -109.71652 808 ft 105 kts 353°
2026-05-04 07:36 23.12464 -109.71736 691 ft 106 kts 353°
2026-05-04 07:38 23.15583 -109.71994 381 ft 15 kts 23°
2026-05-04 07:38 23.15680 -109.71948 381 ft 16 kts 24°
2026-05-04 07:38 23.15796 -109.71938 381 ft 18 kts 351°
2026-05-04 07:38 23.15923 -109.71952 381 ft 18 kts 354°
2026-05-04 07:39 23.16049 -109.71969 380 ft 18 kts 352°
2026-05-04 07:39 23.16174 -109.71980 380 ft 16 kts 353°
2026-05-04 07:39 23.16276 -109.71975 380 ft 14 kts 51°
2026-05-04 07:39 23.16321 -109.71911 380 ft 11 kts 355°
2026-05-04 07:40 23.16414 -109.71923 381 ft 15 kts 353°
2026-05-04 07:40 23.16452 -109.71903 381 ft 3 kts 51°
2026-05-04 07:40 23.16484 -109.71897 380 ft 0 kts 354°